Volver al catálogo

FENGYUN 1C DEB

LostPO
NORAD 31786·DEBRIS·🇨🇳 China

Lanzado May 10, 1999 desde Taiyuan Satellite Launch Center

Loading…

Próximos Pases (próximas 24 horas)

TLE

ObsoletoSource: Space-Track

Época: Apr 9, 2022, 20:41 UTC

1 31786U 99025CGM 22099.86185159  .00003089  00000-0  19966-2 0  9998
2 31786  97.6958 309.3546 0111738 265.4167  93.4231 14.00408561755764

Sigue FENGYUN 1C DEB en tiempo real con AllMySat

Download on the App Store